Volver al catálogo

FENGYUN 1C DEB

ActivoSSO
NORAD 29869·DEBRIS·🇨🇳 China

Lanzado May 10, 1999 desde Taiyuan Satellite Launch Center

Loading…

Próximos Pases (próximas 24 horas)

TLE

ActualizadoSource: Space-Track

Época: Sep 14, 2026, 06:59 UTC

1 29869U 99025FP  26257.29165683  .00000549  00000-0  19196-3 0  9998
2 29869  98.8927 201.5348 0085332 278.4766 240.6591 14.37401944 27736

Sigue FENGYUN 1C DEB en tiempo real con AllMySat

Download on the App Store